Location: El Manguito
(10.2358°N, 67.3634°W)
Time: 14:53:25
(UTC+00:00)

Cosmos 1626 - Pass Details

Date: 10 September 2024
Orbit: 345 x 350 km, 82.5° (Epoch: 14 October)

Event Time Altitude Azimuth Distance (km) Brightness Sun altitude
Rises 23:32:22 0° 358° (N) 2,219 5.6 -15.4°
Reaches altitude 10° 23:34:19 10° 359° (N) 1,382 4.5 -15.9°
Maximum altitude 23:37:19 77° 85° (E) 396 1.4 -16.6°
Enters shadow 23:39:37 16° 171° (S) 1,101 3.7 -17.2°
